This demonstration page uses our WeatherBlox Daily Observations layout. Learn more.

Hourly Observations for August 25, 2020

Temp ( °F °C ) Dew Point ( °F °C ) Humidity (%) Winds ( mph kmh ) Pressure ( in mb ) Visibility ( mi km ) Precip ( " mm )
12:15 am 00:15 Clear 72 22 72 22 100 100 W 3 6 30.01 1016 10 16.0934 0 0
12:35 am 00:35 Clear 72 22 72 22 100 100 W 5 7 30.01 1016 10 16.0934 0 0
12:55 am 00:55 Clear 72 22 72 22 100 100 WSW 3 6 30.01 1016 10 16.0934 0 0
1:15 am 01:15 Clear 72 22 72 22 100 100 Calm 30.01 1016 10 16.0934 0 0
1:35 am 01:35 Clear 72 22 72 22 100 100 Calm 30.01 1016 10 16.0934 0 0
1:55 am 01:55 Clear 70 21 70 21 100 100 SSW 3 6 30 1016 10 16.0934 0 0
2:15 am 02:15 Clear 70 21 70 21 100 100 Calm 30 1016 10 16.0934 0 0
2:35 am 02:35 Clear 70 21 70 21 100 100 W 3 6 30 1016 10 16.0934 0 0
2:55 am 02:55 Clear 70 21 70 21 100 100 Calm 29.99 1016 10 16.0934 0 0
3:15 am 03:15 Clear 70 21 70 21 100 100 S 5 7 29.99 1016 10 16.0934 0 0
3:35 am 03:35 Clear 70 21 70 21 100 100 SSW 3 6 29.97 1015 10 16.0934 0 0
3:55 am 03:55 Clear 70 21 68 20 94 94 Calm 29.97 1015 10 16.0934 0 0
4:15 am 04:15 Clear 68 20 68 20 100 100 SSW 3 6 29.96 1015 10 16.0934 0 0
4:35 am 04:35 Clear 68 20 68 20 100 100 Calm 29.96 1015 10 16.0934 0 0
4:55 am 04:55 Clear 68 20 68 20 100 100 WSW 3 6 29.96 1015 10 16.0934 0 0
5:15 am 05:15 Clear 70 21 66 19 88 88 SW 3 6 29.96 1015 10 16.0934 0 0
5:55 am 05:55 Clear 70 21 66 19 88 88 WSW 3 6 29.96 1015 10 16.0934 0 0
6:15 am 06:15 Clear 70 21 66 19 88 88 Calm 29.96 1015 10 16.0934 0 0
6:35 am 06:35 Sunny 68 20 64 18 88 88 Calm 29.97 1015 10 16.0934 0 0
6:55 am 06:55 Sunny 68 20 64 18 88 88 Calm 29.97 1015 10 16.0934 0 0
7:15 am 07:15 Partly Cloudy 70 21 66 19 88 88 Calm 29.99 1016 10 16.0934 0 0
7:35 am 07:35 Sunny 70 21 66 19 88 88 Calm 29.99 1016 10 16.0934 0 0
7:55 am 07:55 Partly Cloudy 72 22 68 20 88 88 Calm 29.99 1016 10 16.0934 0 0
8:15 am 08:15 Partly Cloudy 73 23 68 20 83 83 Calm 29.99 1015 10 16.0934 0 0
8:35 am 08:35 Sunny 73 23 68 20 83 83 W 6 9 29.98 1015 10 16.0934 0 0
8:55 am 08:55 Sunny 77 25 68 20 74 74 WSW 6 9 29.96 1015 10 16.0934 0 0
9:15 am 09:15 Sunny 77 25 68 20 74 74 W 7 11 29.96 1015 10 16.0934 0 0
9:35 am 09:35 Sunny 79 26 70 21 74 74 WNW 7 11 29.96 1015 10 16.0934 0 0
9:55 am 09:55 Sunny 79 26 68 20 70 70 WSW 6 9 29.98 1015 10 16.0934 0 0
10:15 am 10:15 Sunny with Nearby Thunderstorms 81 27 70 21 70 70 WSW 5 7 29.98 1015 10 16.0934 0 0
10:35 am 10:35 Partly Cloudy 82 28 70 21 66 66 NW 6 9 29.98 1015 10 16.0934 0 0
10:55 am 10:55 Sunny 82 28 70 21 66 66 W 7 11 29.98 1015 10 16.0934 0 0
11:15 am 11:15 Sunny 82 28 72 22 70 70 WNW 9 15 29.98 1015 10 16.0934 0 0
11:35 am 11:35 Partly Cloudy 84 29 72 22 66 66 WNW 7 11 29.96 1015 10 16.0934 0 0
11:55 am 11:55 Mostly Cloudy 82 28 72 22 70 70 WNW 18 30 29.95 1014 10 16.0934 0 0
12:15 pm 12:15 Mostly Cloudy 77 25 70 21 79 79 W 8 13 29.95 1014 10 16.0934 0 0
12:35 pm 12:35 Partly Cloudy 77 25 68 20 74 74 SW 9 15 29.95 1014 10 16.0934 0 0
12:55 pm 12:55 Sunny 77 25 68 20 74 74 WSW 6 9 29.94 1014 10 16.0934 0 0
1:15 pm 13:15 Sunny 81 27 70 21 70 70 WSW 8 13 29.93 1014 10 16.0934 0 0
1:35 pm 13:35 Sunny 82 28 70 21 66 66 W 13 20 29.92 1013 10 16.0934 0 0
1:55 pm 13:55 Sunny 84 29 70 21 62 62 WNW 15 24 29.91 1013 10 16.0934 0 0
2:15 pm 14:15 Sunny 86 30 72 22 62 62 WNW 13 20 29.9 1012 10 16.0934 0 0
2:35 pm 14:35 Sunny 88 31 72 22 59 59 WNW 12 19 29.9 1012 10 16.0934 0 0
2:55 pm 14:55 Sunny 88 31 73 23 62 62 W 9 15 29.89 1012 10 16.0934 0 0
3:15 pm 15:15 Sunny 88 31 73 23 62 62 WNW 10 17 29.88 1012 10 16.0934 0 0
3:35 pm 15:35 Sunny 90 32 73 23 59 59 W 8 13 29.87 1011 10 16.0934 0 0
3:55 pm 15:55 Sunny 90 32 73 23 59 59 WNW 13 20 29.86 1011 10 16.0934 0 0
4:15 pm 16:15 Sunny 90 32 73 23 59 59 W 9 15 29.86 1011 10 16.0934 0 0
4:35 pm 16:35 Sunny 90 32 73 23 59 59 WNW 10 17 29.86 1011 10 16.0934 0 0
4:55 pm 16:55 Sunny 91 33 73 23 56 56 W 8 13 29.84 1011 10 16.0934 0 0
5:15 pm 17:15 Sunny 90 32 72 22 55 55 W 7 11 29.83 1010 10 16.0934 0 0
5:35 pm 17:35 Sunny 90 32 72 22 55 55 W 5 7 29.85 1011 10 16.0934 0 0
5:55 pm 17:55 Partly Cloudy 90 32 72 22 55 55 W 7 11 29.85 1011 10 16.0934 0 0
6:15 pm 18:15 Mostly Cloudy 88 31 72 22 59 59 W 6 9 29.85 1011 10 16.0934 0 0
6:35 pm 18:35 Mostly Cloudy 86 30 72 22 62 62 WNW 13 20 29.85 1011 10 16.0934 0 0
6:55 pm 18:55 Mostly Cloudy with Nearby Thunderstorms 82 28 68 20 62 62 WNW 15 24 29.89 1012 10 16.0934 0 0
7:15 pm 19:15 Partly Cloudy 79 26 68 20 70 70 WNW 17 28 29.89 1012 10 16.0934 0 0
7:35 pm 19:35 Partly Cloudy 75 24 68 20 78 78 W 17 28 29.91 1013 10 16.0934 0 0
7:55 pm 19:55 Partly Cloudy 73 23 68 20 83 83 W 16 26 29.9 1012 10 16.0934 0 0
8:15 pm 20:15 Clear 73 23 68 20 83 83 W 8 13 29.91 1013 10 16.0934 0 0
8:35 pm 20:35 Clear 73 23 68 20 83 83 W 6 9 29.92 1013 10 16.0934 0 0
8:55 pm 20:55 Clear 73 23 68 20 83 83 S 5 7 29.92 1013 10 16.0934 0 0
9:15 pm 21:15 Clear 72 22 68 20 88 88 Calm 29.93 1013 10 16.0934 0 0
9:35 pm 21:35 Clear 73 23 68 20 83 83 SW 3 6 29.93 1013 10 16.0934 0 0
9:55 pm 21:55 Clear 73 23 68 20 83 83 WNW 8 13 29.94 1014 10 16.0934 0 0
10:15 pm 22:15 Clear 73 23 68 20 83 83 WNW 14 22 29.94 1014 10 16.0934 0 0
10:35 pm 22:35 Clear 73 23 68 20 83 83 WNW 12 19 29.95 1014 10 16.0934 0 0
10:55 pm 22:55 Clear 73 23 68 20 83 83 NW 17 28 29.96 1014 10 16.0934 0 0
11:15 pm 23:15 Clear 73 23 68 20 83 83 NW 16 26 29.96 1014 10 16.0934 0 0
11:35 pm 23:35 Clear 73 23 68 20 83 83 NW 14 22 29.96 1014 10 16.0934 0 0
11:55 pm 23:55 Clear 73 23 68 20 83 83 NW 12 19 29.97 1015 10 16.0934 0 0

Powered by AerisWeather